DW7304 Weather Reports


Display with metric or nautical units.
time (UTC)temp
F
wind
direction
speed
MPH
gust
MPH
rain 1hr
in
rain 24hr
in
rain mn
in
humidity
%
barometer
mb
20260904175403 71 187 4.0 7.0 0.00 0.00 0.00 64 1016.7
20260904174503 72 183 3.0 8.0 0.00 0.00 0.00 64 1016.7
20260904173603 72 191 4.0 8.0 0.00 0.00 0.00 63 1016.6
20260904172703 73 190 4.0 10.0 0.00 0.00 0.00 62 1016.9
20260904172017 73 190 5.0 8.0 0.00 0.00 0.00 62 1016.8
20260904170903 74 212 4.0 9.0 0.00 0.00 0.00 61 1016.9
20260904170004 75 213 5.0 10.0 0.00 0.00 0.00 60 1016.9
20260904165403 75 222 5.0 10.0 0.00 0.00 0.00 59 1016.9
20260904164503 76 241 6.0 11.0 0.00 0.00 0.00 59 1016.9
20260904163603 76 231 5.0 12.0 0.00 0.00 0.00 58 1016.9
20260904162917 77 238 6.0 13.0 0.00 0.00 0.00 58 1016.9
20260904161803 77 241 6.0 11.0 0.00 0.00 0.00 57 1017.0
20260904160903 78 244 5.0 11.0 0.00 0.00 0.00 56 1017.0
20260904160003 78 252 6.0 12.0 0.00 0.00 0.00 56 1017.0
20260904155403 78 246 6.0 12.0 0.00 0.00 0.00 56 1017.0
20260904154716 78 250 7.0 11.0 0.00 0.00 0.00 56 1017.0
20260904153817 79 234 6.0 11.0 0.00 0.00 0.00 55 1017.1
20260904152703 79 225 6.0 11.0 0.00 0.00 0.00 55 1017.2
20260904151803 79 248 7.0 11.0 0.00 0.00 0.00 54 1017.3
20260904150903 80 232 6.0 11.0 0.00 0.00 0.00 54 1017.4
20260904150004 79 238 7.0 17.0 0.00 0.00 0.00 55 1017.5
20260904145616 79 225 8.0 17.0 0.00 0.00 0.00 55 1017.5
20260904144503 79 210 7.0 13.0 0.00 0.00 0.00 53 1017.8
20260904143603 80 248 7.0 16.0 0.00 0.00 0.00 53 1018.0
20260904142703 80 257 6.0 12.0 0.00 0.00 0.00 53 1017.9
20260904141803 79 235 8.0 17.0 0.00 0.00 0.00 55 1018.0
20260904140903 79 230 7.0 14.0 0.00 0.00 0.00 54 1018.1
20260904140004 79 238 8.0 16.0 0.00 0.00 0.00 54 1018.1
20260904135618 80 244 7.0 16.0 0.00 0.00 0.00 53 1018.2
20260904134503 79 226 9.0 16.0 0.00 0.00 0.00 54 1017.9
20260904133603 79 206 7.0 16.0 0.00 0.00 0.00 55 1018.0
20260904132703 80 234 7.0 13.0 0.00 0.00 0.00 54 1018.1
20260904131803 80 227 6.0 13.0 0.00 0.00 0.00 54 1018.1
20260904130903 80 227 6.0 12.0 0.00 0.00 0.00 55 1018.0
20260904130003 80 185 6.0 13.0 0.00 0.00 0.00 55 1018.1
20260904125403 80 197 6.0 13.0 0.00 0.00 0.00 54 1018.3
20260904124503 80 236 6.0 13.0 0.00 0.00 0.00 54 1018.4
20260904123603 80 245 7.0 13.0 0.00 0.00 0.00 54 1018.4
20260904122918 80 251 7.0 13.0 0.00 0.00 0.00 54 1018.4
20260904121803 81 256 5.0 10.0 0.00 0.00 0.00 54 1018.7
20260904120903 80 237 6.0 12.0 0.00 0.00 0.00 55 1018.8
20260904120004 80 239 6.0 11.0 0.00 0.00 0.00 55 1018.8
20260904115403 80 239 7.0 15.0 0.00 0.00 0.00 55 1018.8
20260904114503 80 244 5.0 15.0 0.00 0.00 0.00 55 1018.9
20260904113818 79 225 7.0 15.0 0.00 0.00 0.00 55 1019.1
20260904112703 79 221 6.0 11.0 0.00 0.00 0.00 55 1018.9
20260904112017 80 211 5.0 11.0 0.00 0.00 0.00 54 1018.9
20260904110903 79 221 5.0 13.0 0.00 0.00 0.00 55 1018.9
20260904110004 79 221 5.0 10.0 0.00 0.00 0.00 55 1018.9
20260904105617 79 231 5.0 10.0 0.00 0.00 0.00 54 1018.9
20260904104504 79 262 5.0 11.0 0.00 0.00 0.00 55 1019.1
20260904103603 79 255 5.0 11.0 0.00 0.00 0.00 55 1019.1
20260904102917 79 246 3.0 7.0 0.00 0.00 0.00 54 1019.1
20260904101803 79 257 3.0 6.0 0.00 0.00 0.00 54 1019.1
20260904100903 81 279 1.0 3.0 0.00 0.00 0.00 53 1019.1
20260904100003 80 272 2.0 7.0 0.00 0.00 0.00 54 1019.1
20260904095403 79 275 2.0 7.0 0.00 0.00 0.00 54 1019.3
20260904094503 79 288 1.0 7.0 0.00 0.00 0.00 55 1019.2
20260904093603 79 281 1.0 4.0 0.00 0.00 0.00 55 1019.2
20260904092703 78 281 1.0 3.0 0.00 0.00 0.00 55 1019.2
20260904091803 77 274 1.0 3.0 0.00 0.00 0.00 57 1019.1
20260904090903 78 284 0.0 4.0 0.00 0.00 0.00 58 1019.2
20260904090219 77 261 1.0 4.0 0.00 0.00 0.00 59 1019.1
20260904085403 76 260 2.0 4.0 0.00 0.00 0.00 59 1019.1
20260904084503 75 245 3.0 5.0 0.00 0.00 0.00 59 1019.1
20260904083603 75 244 3.0 5.0 0.00 0.00 0.00 59 1018.8
20260904082703 75 240 3.0 6.0 0.00 0.00 0.00 58 1018.9
20260904081803 75 240 3.0 5.0 0.00 0.00 0.00 58 1018.8
20260904080903 75 240 3.0 6.0 0.00 0.00 0.00 58 1018.7
20260904080004 75 242 1.0 2.0 0.00 0.00 0.00 57 1018.7
20260904075403 74 237 1.0 4.0 0.00 0.00 0.00 58 1018.6
20260904074503 74 241 1.0 4.0 0.00 0.00 0.00 58 1018.6
20260904073603 73 256 1.0 5.0 0.00 0.00 0.00 59 1018.7
20260904072918 73 256 1.0 5.0 0.00 0.00 0.00 60 1018.6
20260904071804 72 236 1.0 3.0 0.00 0.00 0.00 58 1018.6
20260904070903 74 84 3.0 9.0 0.00 0.00 0.00 55 1018.6
20260904070004 73 84 6.0 11.0 0.00 0.00 0.00 55 1018.4
20260904065403 72 85 7.0 11.0 0.00 0.00 0.00 56 1018.4
20260904064717 72 83 8.0 13.0 0.00 0.00 0.00 56 1018.5
20260904063603 72 88 6.0 11.0 0.00 0.00 0.00 58 1018.3
20260904062917 71 82 3.0 11.0 0.00 0.00 0.00 58 1018.3
20260904061803 71 84 4.0 11.0 0.00 0.00 0.00 59 1018.5
20260904061118 69 88 2.0 9.0 0.00 0.00 0.00 61 1018.3
20260904060003 70 74 4.0 12.0 0.00 0.00 0.00 60 1018.4
20260904055403 70 75 7.0 12.0 0.00 0.00 0.00 59 1018.2
20260904054503 69 78 7.0 12.0 0.00 0.00 0.00 60 1018.2
20260904053603 68 67 6.0 11.0 0.00 0.00 0.00 62 1018.2
20260904052703 67 61 2.0 8.0 0.00 0.00 0.00 62 1018.1
20260904051803 67 61 0.0 3.0 0.00 0.00 0.00 62 1018.1
20260904050903 67 315 0.0 2.0 0.00 0.00 0.00 63 1017.9
20260904050004 67 299 1.0 2.0 0.00 0.00 0.00 63 1017.8
20260904045403 68 12 1.0 4.0 0.00 0.00 0.00 63 1018.0
20260904044718 67 351 2.0 4.0 0.00 0.00 0.00 63 1018.0
20260904043603 66 73 2.0 3.0 0.00 0.00 0.00 65 1018.0
20260904042703 65 78 3.0 3.0 0.00 0.00 0.00 66 1017.8
20260904041803 65 78 2.0 4.0 0.00 0.00 0.00 65 1018.0
20260904040903 66 43 1.0 4.0 0.00 0.00 0.00 64 1018.1
20260904040003 67 43 1.0 2.0 0.00 0.00 0.00 63 1018.0
20260904035618 67 69 1.0 3.0 0.00 0.00 0.00 63 1018.0
20260904034503 66 83 3.0 3.0 0.00 0.00 0.00 63 1017.9
20260904033603 66 55 1.0 3.0 0.00 0.00 0.00 63 1017.9
20260904032703 67 316 0.0 2.0 0.00 0.00 0.00 62 1018.2
20260904030903 67 60 2.0 2.0 0.00 0.00 0.00 63 1018.1
20260904030004 66 67 1.0 2.0 0.00 0.00 0.00 62 1018.2
20260904025403 67 24 0.0 3.0 0.00 0.00 0.00 62 1018.2
20260904024503 66 37 3.0 4.0 0.00 0.00 0.00 62 1018.2
20260904023603 67 35 1.0 3.0 0.00 0.00 0.00 61 1018.3
20260904022703 68 20 1.0 2.0 0.00 0.00 0.00 61 1018.3
20260904021803 67 46 2.0 3.0 0.00 0.00 0.00 62 1018.1
20260904020903 66 49 3.0 4.0 0.00 0.00 0.00 63 1018.3
20260904020004 65 42 2.0 4.0 0.00 0.00 0.00 63 1018.3
20260904015403 66 20 1.0 3.0 0.00 0.00 0.00 62 1018.2
20260904014503 67 37 1.0 3.0 0.00 0.00 0.00 62 1018.3
20260904013603 68 334 1.0 2.0 0.00 0.00 0.00 60 1018.3
20260904012703 69 39 1.0 2.0 0.00 0.00 0.00 58 1018.2
20260904011803 69 74 2.0 3.0 0.00 0.00 0.00 58 1018.0
20260904010903 68 80 2.0 3.0 0.00 0.00 0.00 59 1017.9
20260904010003 68 52 1.0 2.0 0.00 0.00 0.00 59 1018.1
20260904005403 68 0 0.0 0.0 0.00 0.00 0.00 59 1018.4
20260904004503 69 22 0.0 2.0 0.00 0.00 0.00 58 1018.2
20260904003603 69 25 0.0 1.0 0.00 0.00 0.00 58 1018.2
20260904002703 69 38 0.0 2.0 0.00 0.00 0.00 58 1018.2
20260904001803 69 59 1.0 2.0 0.00 0.00 0.00 59 1018.2
20260904001118 68 47 2.0 2.0 0.00 0.00 0.00 59 1018.3
20260904000004 68 40 0.0 1.0 0.00 0.00 0.00 59 1018.5
20260903235403 69 0 0.0 0.0 0.00 0.00 0.00 59 1018.4
20260903234503 69 0 0.0 0.0 0.00 0.00 0.00 59 1018.5
20260903233603 68 0 0.0 0.0 0.00 0.00 0.00 59 1018.3
20260903232703 68 0 0.0 0.0 0.00 0.00 0.00 59 1018.3
20260903231803 68 40 0.0 1.0 0.00 0.00 0.00 59 1018.5
20260903230903 69 45 0.0 1.0 0.00 0.00 0.00 59 1018.4
20260903230004 69 0 0.0 0.0 0.00 0.00 0.00 59 1018.3
20260903225403 69 45 0.0 2.0 0.00 0.00 0.00 59 1018.4
20260903224503 69 45 3.0 3.0 0.00 0.00 0.00 58 1018.4
20260903223817 69 45 1.0 3.0 0.00 0.00 0.00 58 1018.5
20260903222703 70 0 0.0 0.0 0.00 0.00 0.00 57 1018.3
20260903221803 70 0 0.0 0.0 0.00 0.00 0.00 58 1018.4
20260903220903 69 67 0.0 1.0 0.00 0.00 0.00 58 1018.3
20260903220005 69 79 1.0 2.0 0.00 0.00 0.00 59 1018.2
20260903215403 68 69 2.0 3.0 0.00 0.00 0.00 59 1018.1
20260903214503 69 50 1.0 2.0 0.00 0.00 0.00 59 1018.2
20260903213603 69 58 1.0 2.0 0.00 0.00 0.00 59 1018.4
20260903212703 69 45 1.0 2.0 0.00 0.00 0.00 59 1018.3
20260903211803 69 330 0.0 1.0 0.00 0.00 0.00 59 1018.2
20260903210903 69 35 2.0 4.0 0.00 0.00 0.00 59 1018.1
20260903210218 69 65 2.0 2.0 0.00 0.00 0.00 59 1018.0
20260903205403 68 90 1.0 2.0 0.00 0.00 0.00 60 1018.0
20260903204503 69 0 0.0 0.0 0.00 0.00 0.00 59 1018.2
20260903203603 69 20 2.0 4.0 0.00 0.00 0.00 58 1018.1
20260903202918 69 23 3.0 4.0 0.00 0.00 0.00 58 1018.2
20260903201803 70 34 2.0 3.0 0.00 0.00 0.00 57 1018.0
20260903200903 70 34 2.0 3.0 0.00 0.00 0.00 57 1017.9
20260903200004 70 31 3.0 4.0 0.00 0.00 0.00 57 1018.0
20260903195403 69 43 2.0 3.0 0.00 0.00 0.00 57 1017.9
20260903194717 69 32 2.0 3.0 0.00 0.00 0.00 57 1017.9
20260903193603 70 45 1.0 2.0 0.00 0.00 0.00 56 1017.9
20260903192703 70 44 2.0 3.0 0.00 0.00 0.00 56 1017.9
20260903191803 70 26 3.0 4.0 0.00 0.00 0.00 56 1018.0
20260903190903 70 37 2.0 2.0 0.00 0.00 0.00 56 1018.1
20260903190005 70 36 2.0 3.0 0.00 0.00 0.00 56 1017.8
20260903185403 70 23 2.0 3.0 0.00 0.00 0.00 56 1017.9
20260903184503 70 22 2.0 2.0 0.00 0.00 0.00 56 1017.8
20260903183603 70 23 2.0 3.0 0.00 0.00 0.00 56 1017.7
20260903182703 71 23 3.0 3.0 0.00 0.00 0.00 55 1017.5
20260903181803 71 13 2.0 3.0 0.00 0.00 0.00 55 1017.5
20260903181118 71 17 1.0 3.0 0.00 0.00 0.00 55 1017.4
20260903180003 71 32 1.0 2.0 0.00 0.00 0.00 55 1017.5